Location: Ústí nad Labem
(50.6611°N, 14.0531°E)
Time: 04:50:28
(UTC+02:00)

Courier 1B Rocket - All Passes

Search period start: 22 April 2024 00:00
Search period end: 02 May 2024 00:00
Orbit: 920 x 1201 km, 28.2° (Epoch: 21 April)

Date Brightness Start Highest point End Pass type
(mag) Time Alt. Az. Time Alt. Az. Time Alt. Az.
22 Apr - 05:40:01 10° S 05:41:25 11° S 05:42:49 10° SSE daylight
23 Apr - 06:31:00 10° SSW 06:32:38 11° S 06:34:16 10° S daylight
24 Apr - 05:29:36 10° SSW 05:31:52 11° S 05:34:07 10° SSE daylight
25 Apr - 04:28:51 10° SSW 04:31:05 11° S 04:33:19 10° SSE visible
25 Apr - 06:22:10 10° SSW 06:23:05 10° S 06:23:59 10° S daylight
26 Apr - 03:28:55 10° S 03:30:17 10° S 03:31:40 10° SSE visible
26 Apr - 05:19:56 10° SSW 05:22:18 12° S 05:24:39 10° SSE daylight
27 Apr - 04:18:44 10° SSW 04:21:30 12° S 04:24:16 10° SSE visible
28 Apr - 03:18:04 10° SSW 03:20:41 12° S 03:23:18 10° SSE visible
28 Apr - 05:10:56 10° SSW 05:12:43 11° S 05:14:29 10° S visible
29 Apr - 02:18:09 10° S 02:19:53 11° S 02:21:36 10° SSE visible
29 Apr - 04:09:10 10° SSW 04:11:55 12° S 04:14:39 10° SSE visible
30 Apr - 03:08:07 10° SSW 03:11:05 12° S 03:14:04 10° SSE visible
01 May - 02:07:34 10° SSW 02:10:16 12° S 02:12:58 10° SSE visible
01 May - 04:00:13 10° SSW 04:02:18 11° S 04:04:24 10° S visible
